Regional Weather Roundup
Issued by NWS

Home | Current Version | Previous Version | Graphics & Text | Print | Product List | Glossary Off
Versions: 1 2 3 4 5 6 7 8 9 10 11 12 13 14 15 16 17 18 19 20 21 22 23 24 25 26 27 28 29 30 31 32 33 34 35 36 37 38 39

000
ASUS43 KMKX 230500
RWRWI

WISCONSIN REGIONAL WEATHER ROUNDUP
NATIONAL WEATHER SERVICE MILWAUKEE/SULLIVAN WI
1200 AM CDT TUE AUG 23 2016

NOTE: "FAIR" INDICATES FEW OR NO CLOUDS BELOW 12,000 FEET WITH NO
SIGNIFICANT WEATHER AND/OR OBSTRUCTIONS TO VISIBILITY.

WIZ001-002-006>008-014>016-023>028-230600-
NORTHWEST WISCONSIN

CITY           SKY/WX    TMP DP  RH WIND       PRES   REMARKS
SUPERIOR ARPT  CLEAR     70  61  72 SW8       29.87S
ASHLAND        CLEAR     70  61  73 S8        29.92S
HAYWARD        CLEAR     68  59  73 S10       29.96R
SIREN          CLEAR     71  59  66 SW12G17   29.93S
CUMBERLAND     CLEAR     66  57  72 S9        29.97R
RICE LAKE      CLEAR     67  59  74 S8        29.99R
CHETEK         NOT AVBL
LADYSMITH      CLEAR     67  61  82 S5        30.01S
EAU CLAIRE     NOT AVBL
MENOMONIE      CLEAR     71  60  68 S13G18    29.98S
NEW RICHMOND   CLEAR     70  58  66 S14G21    29.96R
OSCEOLA        CLEAR     71  60  69 S15       29.97R
$$

WIZ003>005-009-010-017-018-230600-
NORTH CENTRAL WISCONSIN

CITY           SKY/WX    TMP DP  RH WIND       PRES   REMARKS
MANITOWISH WTR NOT AVBL
ARBOR VITAE    CLEAR     65  60  84 S9        30.02R
WOODRUFF       CLEAR     65  60  84 S9        30.02R
RHINELANDER    PTCLDY    67  61  81 SW10      30.04R
EAGLE RIVER    CLEAR     65  57  75 SW6       30.03R
LAND O LAKES   CLOUDY    63  60  91 SE3       30.04R
PHILLIPS       CLEAR     66  61  84 S10G16    30.00S
TOMAHAWK       PTCLDY    64  59  84 S3        30.04S
MEDFORD        PTCLDY    64  63  94 S8        30.03S
MERRILL        CLEAR     67  61  81 SW7       30.05S
$$

WIZ029-030-035-036-043>047-230600-
CENTRAL WISCONSIN

CITY           SKY/WX    TMP DP  RH WIND       PRES   REMARKS
WAUSAU         PTCLDY    67  60  78 S14G22    30.04S
MOSINEE        CLEAR     63  61  94 S9        30.07R
MARSHFIELD     CLEAR     65  59  81 S10       30.05S
STEVENS POINT  CLEAR     64  58  80 S13       30.07R
WAUPACA        CLEAR     66  60  82 S6        30.08S
WAUTOMA        CLEAR     66  59  78 S5        30.09S
WISC RAPIDS    CLEAR     67  61  81 S8        30.07S
CAMP DOUGLAS   NOT AVBL
$$

WIZ011>013-019>022-031-037>040-048>050-230600-
NORTHEAST WISCONSIN

CITY           SKY/WX    TMP DP  RH WIND       PRES   REMARKS
ANTIGO         PTCLDY    63  59  86 SW9       30.06S
SHAWANO        CLEAR     67  58  73 SW3       30.06S
OCONTO         NOT AVBL
STURGEON BAY   CLOUDY    66  59  78 SE5       30.12R
GREEN BAY      CLEAR     64  61  90 S6        30.08R
MANITOWOC      NOT AVBL
APPLETON       CLEAR     64  54  68 S10       30.07S
CLINTONVILLE   CLEAR     66  55  68 S8        30.07R
OSHKOSH        CLEAR     65  57  75 S12       30.09S
$$

WIZ032>034-041-042-053>061-230600-
SOUTHWEST WISCONSIN

CITY           SKY/WX    TMP DP  RH WIND       PRES   REMARKS
LA CROSSE      CLEAR     72  67  84 S8        30.04R
SPARTA         CLEAR     68  61  78 S8        30.07R
VIROQUA        CLEAR     65  60  84 S9        30.08F
BOSCOBEL       CLEAR     68  60  75 SW3       30.09S
PRAIRIE DU CHI CLEAR     67  59  74 E3        30.08S
PLATTEVILLE    CLEAR     65  62  90 S7        30.12S
$$

WIZ056-057-062-063-064-067-068-230600-
SOUTH CENTRAL WISCONSIN

CITY           SKY/WX    TMP DP  RH WIND       PRES   REMARKS
REEDSBURG      NOT AVBL
BARABOO/DELLS  CLEAR     66  57  74 SW10      30.10R
LONE ROCK      NOT AVBL
MINERAL POINT  CLEAR     64  61  88 S6        30.12S
MADISON        CLEAR     67  58  72 S9        30.11S
MIDDLETON      CLEAR     67  58  74 S5        30.13R
WATERTOWN      CLEAR     62  58  86 S5        30.13S
MONROE         CLEAR     63  55  77 S8        30.14S
JANESVILLE     CLEAR     63  55  77 S3        30.14R
$$

WIZ051-052-058>065-066-070>072-230600-
SOUTHEAST WISCONSIN

CITY           SKY/WX    TMP DP  RH WIND       PRES   REMARKS
MILWAUKEE      CLEAR     68  55  63 SW8       30.15R
WAUKESHA       CLEAR     63  54  72 CALM      30.16R
MILWAUKEE/TIMM CLEAR     66  52  59 S8        30.15R
RACINE         CLEAR     66  55  67 SW7       30.17R
BURLINGTON     CLEAR     57  55  92 CALM      30.16R
KENOSHA        CLEAR     65  56  72 S7        30.17R
FOND DU LAC    CLEAR     67  57  70 S10       30.11R
SHEBOYGAN      CLEAR     61  55  81 S6        30.12S
WEST BEND      CLEAR     61  55  82 SW3       30.14S
JUNEAU         CLEAR     63  57  81 S8        30.14R
$$

LSZ147-162-230600-
LAKE SUPERIOR

STATION/POSITION TIME  TEMP    WIND        PRES    WAVE
                       AIR SEA DIR/SP/G            HT/PER
                 (UTC) (F)     (DEG/KT/KT) (MB)    (FT/S)
W MID LAKE BUOY  0350   69 66  180/ 16/ 19 1011.4R   2/ 4
DEVILS ISLAND    0400   74     190/ 10/ 13 1011.9R
PORT WING        0400   74     190/ 10/ 16 1012.2
SAXON HARBOR     0400   73     200/  8/ 13 1012.5S
$$

LMZ867-665-643>646-230600-
LAKE MICHIGAN

STATION/POSITION TIME  TEMP    WIND        PRES    WAVE
                       AIR SEA DIR/SP/G            HT/PER
                 (UTC) (F)     (DEG/KT/KT) (MB)    (FT/S)
CHAMBERS ISLAND  0400   68     120/  5/  9 1019.0R
S GREEN BAY BUOY 0430   71 74  180/ 16/ 19 1017.8R
N MID LAKE BUOY  0350   71 71  220/ 19/ 23 1019.0R   6/ 6
NORTHPORT PIER   0400   68     160/  5/  7 1019.6S
SISTER BAY       0437   67     150/  7/ 10   N/A
KEWAUNEE LAKESHO 0400   67     200/  8/ 10 1018.6R
SHEBOYGAN LAKESH 0400   68     200/ 11/ 13 1020.0R
PORT WASHINGTON  0400   66     230/  5/  7 1020.7
ATWATER BUOY     0400   69 63  200/  8/ 10   N/A
MILWAUKEE LAKESH 0410   70     200/  9/ 10   N/A
S MID LAKE BUOY  0350   74 74  180/ 16/ 19 1020.4R   3/ 4
KENOSHA   LAKESH 0400   69     210/  8/ 10 1020.7R
$$

TC  - TEMPERATURE IN CELSIUS
VSB - VISIBILITY IN STATUTE MILES
WCI - WIND CHILL INDEX
HX  - HEAT INDEX





USA.gov is the U.S. government's official web portal to all federal, state and local government web resources and services.